DW7098 Weather Reports


time (UTC)temp
C
wind
direction
speed
KPH
gust
KPH
rain 1hr
cm
rain 24hr
cm
rain mn
cm
humidity
%
barometer
mb
20260831163050 15 86 3.2 6.4 0.00 0.00 0.00
20260831160059 13 59 3.2 4.8 0.00 0.00 0.00
20260831150107 12 273 0.0 1.6 0.00 0.00 0.00
20260831143047 11 273 0.0 0.0 0.00 0.00 0.00
20260831140055 11 273 0.0 0.0 0.00 0.00 0.00
20260831133035 11 273 0.0 0.0 0.00 0.00 0.00
20260831130104 11 273 0.0 0.0 0.00 0.00 0.00
20260831123042 11 273 0.0 1.6 0.00 0.00 0.00
20260831113037 11 273 0.0 0.0 0.00 0.00 0.00
20260831110105 11 273 0.0 0.0 0.00 0.00 0.00
20260831103041 12 273 0.0 1.6 0.00 0.00 0.00
20260831100052 12 273 0.0 0.0 0.00 0.00 0.00
20260831083045 12 273 0.0 0.0 0.00 0.00 0.00
20260831080051 13 273 0.0 0.0 0.00 0.00 0.00
20260831073036 13 273 0.0 0.0 0.00 0.00 0.00
20260831070105 13 273 0.0 0.0 0.00 0.00 0.00
20260831063044 13 273 0.0 0.0 0.00 0.00 0.00
20260831060050 14 273 0.0 0.0 0.00 0.00 0.00
20260831053029 14 273 0.0 0.0 0.00 0.00 0.00
20260831050053 15 218 0.0 1.6 0.00 0.00 0.00
20260831043052 15 218 0.0 0.0 0.00 0.00 0.00
20260831033041 16 239 0.0 1.6 0.00 0.00 0.00
20260831030052 16 225 0.0 1.6 0.00 0.00 0.00
20260831023033 17 255 0.0 3.2 0.00 0.00 0.00
20260831020105 18 230 0.0 3.2 0.00 0.00 0.00
20260831013046 18 235 0.0 4.8 0.00 0.00 0.00
20260831010055 19 209 1.6 6.4 0.00 0.00 0.00
20260831000104 20 116 0.0 11.3 0.00 0.00 0.00
20260830233044 21 215 3.2 6.4 0.00 0.00 0.00
20260830223035 21 314 4.8 14.5 0.00 0.00 0.00
20260830220108 22 225 3.2 12.9 0.00 0.00 0.00
20260830213049 21 268 4.8 14.5 0.00 0.00 0.00
20260830203042 20 253 4.8 14.5 0.00 0.00 0.00
20260830200050 19 176 1.6 8.0 0.00 0.00 0.00
20260830193031 19 233 1.6 9.7 0.00 0.00 0.00
20260830190105 18 207 3.2 8.0 0.00 0.00 0.00
20260830183047 18 196 0.0 6.4 0.00 0.00 0.00
20260830180058 18 256 0.0 6.4 0.00 0.00 0.00